Location: Artiguedieu
(43.5000°N, 0.5454°E)
Time: 04:30:52
(UTC+00:00)

Courier 1B Rocket - Visible Passes

Search period start: 26 July 2021 00:00
Search period end: 05 August 2021 00:00
Orbit: 920 x 1202 km, 28.2° (Epoch: 25 July)

Date Brightness Start Highest point End Pass type
(mag) Time Alt. Az. Time Alt. Az. Time Alt. Az.
26 Jul 6.8 03:38:26 10° S 03:41:05 13° SSE 03:43:44 10° SE visible
28 Jul 6.6 03:28:49 11° SSW 03:32:00 16° SSE 03:35:37 10° SE visible
29 Jul 6.7 02:31:26 13° SSE 02:31:26 13° SSE 02:34:15 10° SE visible
30 Jul 6.4 03:20:25 15° SSW 03:22:57 18° S 03:27:05 10° SE visible
31 Jul 6.6 02:23:04 16° SSE 02:23:04 16° SSE 02:26:06 10° SE visible
31 Jul 6.4 04:10:13 10° SW 04:14:36 19° S 04:18:55 10° SE visible
01 Aug 6.3 03:12:06 18° SSW 03:13:53 20° S 03:18:18 10° SE visible
02 Aug 6.5 02:14:50 18° SSE 02:14:50 18° SSE 02:17:34 10° SE visible
02 Aug 6.4 04:01:16 10° SW 04:05:33 19° S 04:09:43 10° SSE visible
03 Aug 6.2 03:03:59 20° SSW 03:04:51 20° S 03:09:21 10° SE visible
04 Aug 6.7 02:06:51 16° SSE 02:06:51 16° SSE 02:08:47 10° SE visible
04 Aug 6.5 03:53:14 12° SW 03:56:28 17° SSW 04:00:17 10° SSE visible
